User: anonymous   Login
Location: Oshawa
(43.9000°N, 78.8670°W)
Time: 17:46:09
(UTC-04:00)
Language:

SPOT 5 - Orbit

View from above orbital plane
View from above orbital plane
View from above satellite
View from above satellite

Ground track
Ground track

The orbit data is extracted from the following two-line orbital elements,

1 27421U 02021A   15245.53124091  .00000174  00000-0  10000-3 0  9999
2 27421  98.5053 298.3125 0001121 102.6706   4.8218 14.20894126691113
Epoch (UTC): 02 September 2015 12:44:59
Eccentricity: 0.0001121
inclination: 98.5053°
perigee height: 821 km
apogee height: 823 km
right ascension of ascending node: 298.3125°
argument of perigee: 102.6706°
revolutions per day: 14.20894126
mean anomaly at epoch: 4.8218°
orbit number at epoch: 69111

The dashed part of the orbit path shows where the satellite is in the earth's shadow,  

DLR